Park Rapids, MN

7:02 AM CST on February 23, 2018 (GMT -0600)
Park Rapids Municipal

Weather History for KPKD - October, 2014

Change the Weather History Date:

Saturday, October 18, 2014

  Actual Average Record
Temperature  
Mean Temperature 42 °F -  
Max Temperature 50 °F 51 °F 72 °F (1953)
Min Temperature 36 °F 31 °F 10 °F (1972)
Degree Days  
Heating Degree Days 23    
Moisture  
Dew Point 35 °F    
Average Humidity 79    
Maximum Humidity 97    
Minimum Humidity 59    
Precipitation  
Precipitation 0.00 in - - ()
Sea Level Pressure  
Sea Level Pressure 30.18 in    
Wind  
Wind Speed 8 mph (SW)    
Max Wind Speed 13 mph    
Max Gust Speed -    
Visibility 10 miles    
Events      
Averages and records for this station are not official NWS values.
T = Trace of Precipitation, MM = Missing Value Source: NWS Daily Summary

Daily Weather History Graph

Daily Weather History Graph

Search for Another Location

Airport or City:

Trip Planner

Search our weather history database for the weather conditions in past years. The results will help you decide how hot, cold, wet, or windy it might be!

Date:

Astronomy

Oct. 18, 2014 Rise Set
Actual Time 7:42 AM CDT 6:27 PM CDT
Civil Twilight 7:11 AM CDT 6:58 PM CDT
Nautical Twilight 6:36 AM CDT 7:33 PM CDT
Astronomical Twilight 6:01 AM CDT 8:08 PM CDT
Moon 2:23 AM CDT (10/18) 4:04 PM CDT (10/18)
Length of Visible Light 11h 46m
Length of Day
10h 45m
Waning Crescent, 24% of the Moon is Illuminated
Oct 18
Waning Crescent
Oct 23
New
Oct 30
First Quarter
Nov 6
Full
Nov 14
Last Quarter

Hourly Weather History & Observations

Time (CDT) Temp. Windchill Dew Point Humidity Pressure Visibility Wind Dir Wind Speed Gust Speed Precip Events Conditions
12:53 AM 45.0 °F 39.3 °F 37.0 °F 74% 30.18 in 10.0 mi North 11.5 mph - N/A   Overcast
1:53 AM 44.1 °F 37.7 °F 36.0 °F 73% 30.18 in 10.0 mi North 12.7 mph - N/A   Overcast
2:53 AM 43.0 °F 38.2 °F 36.0 °F 76% 30.19 in 10.0 mi NNE 8.1 mph - N/A   Overcast
3:53 AM 41.0 °F 35.2 °F 35.1 °F 79% 30.20 in 10.0 mi North 9.2 mph - N/A   Overcast
4:11 AM 41.0 °F 35.8 °F 36.0 °F 82% 30.17 in 10.0 mi North 8.1 mph - N/A   Overcast
4:53 AM 41.0 °F 37.1 °F 36.0 °F 82% 30.22 in 10.0 mi North 5.8 mph - N/A   Overcast
5:53 AM 41.0 °F 37.1 °F 36.0 °F 82% 30.23 in 10.0 mi NNE 5.8 mph - N/A   Overcast
6:53 AM 41.0 °F 36.4 °F 35.1 °F 79% 30.24 in 10.0 mi NNW 6.9 mph - N/A   Overcast
7:53 AM 39.9 °F 36.7 °F 35.1 °F 83% 30.24 in 10.0 mi NNW 4.6 mph - N/A   Overcast
8:53 AM 39.9 °F 37.8 °F 35.1 °F 83% 30.25 in 10.0 mi NNW 3.5 mph - N/A   Overcast
9:53 AM 41.0 °F - 35.1 °F 79% 30.25 in 10.0 mi Calm Calm - N/A   Overcast
10:53 AM 39.9 °F 37.8 °F 35.1 °F 83% 30.25 in 10.0 mi ESE 3.5 mph - N/A   Overcast
11:53 AM 42.1 °F - 35.1 °F 76% 30.25 in 10.0 mi Calm Calm - N/A   Overcast
12:37 PM 43.0 °F 40.3 °F 36.0 °F 76% 30.21 in 10.0 mi SW 4.6 mph - N/A   Overcast
12:53 PM 42.1 °F 40.2 °F 35.1 °F 76% 30.24 in 10.0 mi Variable 3.5 mph - N/A   Overcast
1:53 PM 45.0 °F 41.8 °F 35.1 °F 68% 30.22 in 10.0 mi South 5.8 mph - N/A   Overcast
2:46 PM 46.0 °F 43.9 °F 35.1 °F 66% 30.16 in 10.0 mi South 4.6 mph - N/A   Scattered Clouds
2:53 PM 46.0 °F 44.8 °F 35.1 °F 66% 30.19 in 10.0 mi SSE 3.5 mph - N/A   Partly Cloudy
3:53 PM 48.9 °F - 35.1 °F 59% 30.17 in 10.0 mi SW 10.4 mph - N/A   Clear
4:53 PM 48.0 °F - 36.0 °F 63% 30.15 in 10.0 mi SW 9.2 mph - N/A   Clear
5:53 PM 45.0 °F 40.6 °F 36.0 °F 71% 30.13 in 10.0 mi SSW 8.1 mph - N/A   Clear
6:53 PM 39.0 °F 34.0 °F 35.1 °F 86% 30.12 in 10.0 mi SSW 6.9 mph - N/A   Clear
7:53 PM 36.0 °F 30.3 °F 34.0 °F 93% 30.10 in 10.0 mi South 6.9 mph - N/A   Clear
8:53 PM 36.0 °F 31.1 °F 34.0 °F 93% 30.09 in 10.0 mi South 5.8 mph - N/A   Clear
9:53 PM 37.9 °F 31.5 °F 36.0 °F 93% 30.08 in 10.0 mi South 9.2 mph - N/A   Clear
10:53 PM 36.0 °F 31.1 °F 35.1 °F 97% 30.07 in 10.0 mi South 5.8 mph - N/A   Clear
11:53 PM 37.0 °F 31.0 °F 36.0 °F 96% 30.04 in 10.0 mi South 8.1 mph - N/A   Clear